{"data":{"norad_id":56098,"epoch":"2026-05-25T04:30:16.460064Z","epoch_age_seconds":69004,"freshness":"FRESH","line1":"1 56098U 23046F   26145.18769051 -.00000040  00000+0  80825-5 0  9990","line2":"2 56098  43.0050  89.3054 0001437 264.1162  95.9526 15.27574651173727","mean_motion":15.27574651,"eccentricity":0.0001437,"inclination_deg":43.005,"raan_deg":89.3054,"arg_perigee_deg":264.1162,"mean_anomaly_deg":95.9526,"bstar":8.0825e-6,"rev_number":17372,"period_min":94.267078800851,"perigee_km":482.07915817306,"apogee_km":484.05106766031,"semimajor_km":6861.2021129167,"source":"CELESTRAK","updated_at":"2026-05-25T13:38:17.953895Z"}}